Weather History for Arcata, CA

Change the Weather History Date:

Friday, February 7, 2014

  Actual Average Record
Temperature  
Mean Temperature 50 °F -  
Max Temperature 54 °F 54 °F 63 °F (2000)
Min Temperature 46 °F 37 °F 32 °F (2001)
Degree Days  
Heating Degree Days 15    
Moisture  
Dew Point 48 °F    
Average Humidity 89    
Maximum Humidity 94    
Minimum Humidity 77    
Precipitation  
Precipitation 0.66 in - - ()
Sea Level Pressure  
Sea Level Pressure 29.86 in    
Wind  
Wind Speed 9 mph (South)    
Max Wind Speed 20 mph    
Max Gust Speed 32 mph    
Visibility 7 miles    
Events Rain    
Averages and records for this station are not official NWS values.
T = Trace of Precipitation, MM = Missing Value Source: NWS Daily Summary

Daily Weather History Graph

Daily Weather History Graph

Search for Another Location

Airport:

Trip Planner

Search our weather history database for the weather conditions in past years. The results will help you decide how hot, cold, wet, or windy it might be!

Date:

Astronomy

Feb. 07, 2014 Rise Set
Actual Time 7:20 AM PST 5:41 PM PST
Civil Twilight 6:51 AM PST 6:09 PM PST
Nautical Twilight 6:19 AM PST 6:42 PM PST
Astronomical Twilight 5:47 AM PST 7:14 PM PST
Moon 11:56 AM PST (2/7) 1:42 AM PST (2/7)
Length of Visible Light 11h 18m
Length of Day
10h 20m
First Quarter, 60% of the Moon is Illuminated
Feb 7
First Quarter
Feb 14
Full
Feb 22
Last Quarter
Mar 1
New
Mar 8
First Quarter

Hourly Weather History & Observations

Time (PST) Temp. Windchill Dew Point Humidity Pressure Visibility Wind Dir Wind Speed Gust Speed Precip Events Conditions
12:18 AM 46.0 °F 43.1 °F 44.1 °F 93% 29.94 in 10.0 mi South 5.8 mph - N/A   Overcast
12:48 AM 46.4 °F 45.2 °F 44.6 °F 93% 29.93 in 3.0 mi South 3.5 mph - 0.00 in Rain Light Rain
12:53 AM 46.0 °F 43.9 °F 44.1 °F 93% 29.96 in 2.0 mi South 4.6 mph - 0.00 in Rain Light Rain
1:00 AM 46.0 °F 41.9 °F 43.0 °F 89% 29.94 in 2.0 mi West 8.1 mph - 0.01 in Rain Light Rain
1:23 AM 46.0 °F - 44.1 °F 93% 29.94 in 2.5 mi Calm Calm - 0.05 in Rain Light Rain
1:29 AM 46.0 °F - 44.1 °F 93% 29.95 in 5.0 mi Calm Calm - 0.05 in Rain Light Rain
1:53 AM 46.0 °F 43.1 °F 43.0 °F 89% 29.97 in 10.0 mi SSE 5.8 mph - 0.05 in   Overcast
2:25 AM 46.0 °F 41.9 °F 44.1 °F 93% 29.95 in 10.0 mi South 8.1 mph - N/A   Overcast
2:35 AM 46.0 °F 41.9 °F 44.1 °F 93% 29.95 in 10.0 mi South 8.1 mph - N/A   Overcast
2:53 AM 46.0 °F 42.5 °F 44.1 °F 93% 29.96 in 5.0 mi SSE 6.9 mph - N/A   Overcast
3:16 AM 46.0 °F 41.9 °F 44.1 °F 93% 29.93 in 10.0 mi SSE 8.1 mph - 0.00 in   Overcast
3:53 AM 46.0 °F 41.4 °F 43.0 °F 89% 29.95 in 10.0 mi SSE 9.2 mph - 0.00 in   Overcast
4:53 AM 46.9 °F - 43.0 °F 86% 29.95 in 10.0 mi SE 6.9 mph - N/A   Overcast
5:53 AM 46.9 °F - 42.1 °F 83% 29.93 in 10.0 mi ESE 6.9 mph - 0.00 in Rain Light Rain
6:53 AM 46.9 °F - 43.0 °F 86% 29.93 in 9.0 mi SE 6.9 mph - 0.05 in Rain Light Rain
7:53 AM 46.9 °F - 43.0 °F 86% 29.91 in 9.0 mi SE 10.4 mph - 0.04 in Rain Light Rain
8:53 AM 46.9 °F - 43.0 °F 86% 29.90 in 8.0 mi SE 11.5 mph 20.7 mph 0.04 in Rain Light Rain
9:53 AM 48.0 °F - 43.0 °F 83% 29.88 in 9.0 mi SE 15.0 mph 23.0 mph 0.04 in Rain Light Rain
10:53 AM 48.0 °F - 44.1 °F 86% 29.86 in 10.0 mi SSE 12.7 mph - 0.03 in Rain Light Rain
11:53 AM 48.9 °F - 44.1 °F 83% 29.82 in 9.0 mi SSE 15.0 mph 20.7 mph 0.03 in Rain Light Rain
12:53 PM 50.0 °F - 45.0 °F 83% 29.78 in 10.0 mi SSE 12.7 mph - 0.00 in Rain Light Rain
1:53 PM 51.1 °F - 45.0 °F 80% 29.74 in 10.0 mi SSE 16.1 mph 25.3 mph 0.01 in   Overcast
2:53 PM 51.1 °F - 46.0 °F 83% 29.72 in 7.0 mi SSE 18.4 mph 24.2 mph 0.03 in Rain Light Rain
3:53 PM 54.0 °F - 46.9 °F 77% 29.71 in 10.0 mi South 16.1 mph 25.3 mph 0.01 in   Overcast
4:53 PM 54.0 °F - 46.9 °F 77% 29.75 in 3.0 mi South 19.6 mph 32.2 mph 0.02 in Rain Light Rain
4:58 PM 53.1 °F - 48.0 °F 83% 29.75 in 2.5 mi South 17.3 mph 27.6 mph 0.00 in Rain Light Rain
5:15 PM 53.1 °F - 48.0 °F 83% 29.75 in 7.0 mi South 19.6 mph 26.5 mph 0.02 in Rain Light Rain
5:53 PM 54.0 °F - 48.9 °F 83% 29.78 in 10.0 mi South 18.4 mph 26.5 mph 0.04 in Rain Light Rain
6:19 PM 53.1 °F - 48.9 °F 86% 29.78 in 8.0 mi South 16.1 mph - 0.03 in Rain Light Rain
6:53 PM 54.0 °F - 50.0 °F 86% 29.81 in 4.0 mi South 16.1 mph - 0.06 in Rain Light Rain
7:02 PM 53.1 °F - 50.0 °F 89% 29.80 in 10.0 mi South 15.0 mph - 0.01 in   Overcast
7:53 PM 54.0 °F - 51.1 °F 90% 29.82 in 6.0 mi South 11.5 mph - 0.03 in Rain Light Rain
8:02 PM 54.0 °F - 51.1 °F 90% 29.81 in 3.0 mi South 12.7 mph - 0.02 in Rain Rain
8:09 PM 54.0 °F - 51.1 °F 90% 29.81 in 2.0 mi South 10.4 mph - 0.06 in Rain Heavy Rain
8:15 PM 54.0 °F - 52.0 °F 93% 29.82 in 3.0 mi South 13.8 mph - 0.06 in Rain Light Rain
8:24 PM 54.0 °F - 51.1 °F 90% 29.82 in 9.0 mi South 13.8 mph - 0.07 in Rain Light Rain
8:37 PM 54.0 °F - 52.0 °F 93% 29.84 in 10.0 mi South 13.8 mph - 0.07 in   Overcast
8:46 PM 54.0 °F - 51.1 °F 90% 29.84 in 10.0 mi South 11.5 mph - 0.07 in   Overcast
8:51 PM 53.6 °F - 51.8 °F 94% 29.85 in 7.0 mi South 11.5 mph - 0.07 in   Overcast
8:53 PM 54.0 °F - 52.0 °F 93% 29.87 in 6.0 mi South 12.7 mph - 0.07 in Rain Light Rain
9:00 PM 54.0 °F - 52.0 °F 93% 29.85 in 6.0 mi South 11.5 mph - 0.00 in Rain Light Rain
9:16 PM 54.0 °F - 51.1 °F 90% 29.85 in 7.0 mi South 10.4 mph - 0.00 in Rain Light Rain
9:28 PM 54.0 °F - 52.0 °F 93% 29.86 in 10.0 mi South 11.5 mph - 0.00 in   Overcast
9:53 PM 54.0 °F - 52.0 °F 93% 29.88 in 9.0 mi South 10.4 mph - 0.00 in   Overcast
10:04 PM 54.0 °F - 52.0 °F 93% 29.87 in 3.0 mi South 10.4 mph - 0.02 in Rain Rain
10:21 PM 54.0 °F - 52.0 °F 93% 29.87 in 9.0 mi South 10.4 mph - 0.02 in   Overcast
10:44 PM 54.0 °F - 52.0 °F 93% 29.88 in 10.0 mi South 9.2 mph - 0.03 in   Overcast
10:53 PM 54.0 °F - 52.0 °F 93% 29.90 in 10.0 mi South 9.2 mph - 0.03 in   Overcast
11:17 PM 54.0 °F - 52.0 °F 93% 29.88 in 5.0 mi SSE 11.5 mph - 0.01 in Rain Light Rain
11:45 PM 54.0 °F - 52.0 °F 93% 29.90 in 2.0 mi South 6.9 mph - 0.05 in Rain Light Rain
11:53 PM 54.0 °F - 52.0 °F 93% 29.92 in 2.0 mi South 6.9 mph - 0.08 in Rain Rain